STARLINK-11394, 62218

Orbit data source: Space-Track

STARLINK-11394, 62218 is a payload satellite owned by SpaceX/Seattle (US) in LEO that was launched on Thu, 05 Dec 2024 UTC via an FALCON 9 launch vehicle from the Air Force Western Test Range (AFWTR). Payload-class satellites include a variety of spacecraft equipped with specific instruments for various scientific and technological missions. These include communications satellites like Starlink; space stations such as the ISS; scientific satellites like the Hubble; Earth observation satellites from companies like Planet Labs, Umbra, and HawkEye 360; GPS; miniature CubeSats for education and research; and military/defense satellites.

Loading next visibility...
Identifier
62218, 2024-231A
Orbit
LEO
Country
Flag of USUS
Related business
Manufacturer
SpaceX/Seattle
Mission
Operational Commercial Communications
Bus & Motor
STARLINK V2MD, Unknown motor
Mass
960 kg wet, ~910 kg dry
Launch date (UTC)
2024-12-05 (10 months ago)
Launch vehicle
FALCON 9
Launch site
Air Force Western Test Range (AFWTR)
Object type
Payload
Rocket body
Debris
Shape & HBR
Box + 2 Pan, 18.1 m
Radar Cross Section
36.964 m², Large (>1 m²)

Expand to show TLE details & history
Last TLE update: 19 hours ago

TLE from 19 hours ago
0 STARLINK-11394
1 62218U 24231A   25287.90157116  .00269617  00000-0  21476-2 0  9998
2 62218  53.1558  99.9653 0001060  72.9164 287.1970 15.69834436 50519
Epoch: 2025-10-14T21:38Z
TLE epoch observation values (Epoch: 2025-10-14T21:38:15.748Z)
Latitude
-0.00001°
Longitude
111.71633°
Altitude
360.074 km
Speed
7.695 km/s
True Right ascension
06h 39m 51s
True Declination
0° 00' 00"
Sunlit
Object was in daylight at epoch
Visualization orbit readout
Latitude
Unknown
Longitude
Unknown
Altitude
Unknown
Speed
Unknown
Apparent Right ascension
Unknown
Apparent Declination
Unknown
Sunlit
N/A
Visualization observer readout
Local Sidereal Time
11:22:58
Azimuth
Unknown
Elevation
Unknown
Doppler factor
Unknown
Orbital elements
Apogee altitude
360.346 km
Perigee altitude
358.918 km
Semi-major axis
6,737.769 km
Eccentricity
0.00011
Inclination
53.1558°
RAAN
99.9653°
Arg. of periapsis
72.9164°
True anomaly
287.1854°
Mean anomaly
287.197°
Eccentric anomaly
287.1912°
Mean motion
3.92436 °/min
Orbital period
91.73 mins
BSTAR
0.0021476
Loading maneuver chart data...
Computing Atmospheric mass density...
Loading historical data...
Loading historical data...
Loading historical data...
Loading historical data...
Loading historical data...
Loading historical data...
Loading historical data...

Documentation

Showing up to 5 results
|